Regional Weather Roundup
Issued by NWS

Home | Current Version | Previous Version | Text Only | Print | Product List | Glossary Off
Versions: 1 2 3 4 5 6 7 8 9 10 11 12 13 14 15 16 17 18 19 20 21 22 23 24 25 26 27 28

000
ASUS45 KCYS 232010
RWRWY

WYOMING REGIONAL WEATHER ROUNDUP
NATIONAL WEATHER SERVICE CHEYENNE WY
200 PM MDT MON APR 23 2018

NOTE:  "FAIR" INDICATES FEW OR NO CLOUDS BELOW 12,000 FEET
WITH NO SIGNIFICANT WEATHER AND/OR OBSTRUCTIONS TO VISIBILITY.

WYZ001-232100-
YELLOWSTONE NATIONAL PARK

CITY           SKY/WX    TMP DP  RH WIND       PRES   REMARKS
LK YELLOWSTONE   N/A     33  29  85 VRB3      30.23R
W YELLOWSTONE  NOT AVBL

$$
WYZ002>013-054>058-071-098>099-232100-
NORTHERN WYOMING

CITY           SKY/WX    TMP DP  RH WIND       PRES   REMARKS
JACKSON        PTSUNNY   43  29  57 NW12        N/A
CODY           MIX PCPN  37  32  82 NW20G30   30.29R WCI  27
GREYBULL       LGT RAIN  37  36  96 N23G32    30.20R WCI  26
WORLAND        CLOUDY    39  36  89 NW17G28   30.23R WCI  30
SHERIDAN       LGT SNOW  34  33  96 NW24G35   30.26R FOG     WCI  21
BUFFALO        LGT SNOW  34  31  88 N28G39    30.18S FOG     WCI  21
GILLETTE       RAIN      37  35  92 NW36G48   30.09R FOG     WCI  23
HULETT         MOCLDY    59  39  47 E14G23    30.02F
NEWCASTLE      FAIR      59  32  36 S17G24    30.02S

$$
WYZ014>020-022>026-101>103-232100-
CENTRAL WYOMING

CITY           SKY/WX    TMP DP  RH WIND       PRES   REMARKS
BIG PINEY      PTSUNNY   50  21  32 NW13G23   30.14F
PINEDALE       CLOUDY    45  23  42 NW13G24   30.17R
DUBOIS         MOCLDY    45  28  53 W28G33    30.12R
LANDER         CLOUDY    42  36  79 NE8       30.14R
RIVERTON       CLOUDY    42  31  64 N25G33    30.15R
CASPER         FAIR      49  41  74 N9        30.10F
DOUGLAS        PTSUNNY   59  41  51 NW23G30   30.05R

$$
WYZ021-027>030-104>119-232100-
SOUTHERN WYOMING

CITY           SKY/WX    TMP DP  RH WIND       PRES   REMARKS
EVANSTON       FAIR      55  24  30 W23G36    30.17S
KEMMERER       FAIR      52  21  30 W25G31    30.17R
FORT BRIDGER   FAIR      58  22  24 W24G36    30.18F
ROCK SPRINGS   FAIR      59  21  23 W21G29    30.11F
DIXON          FAIR      62  31  32 CALM      30.13F
RAWLINS        CLOUDY    57  32  38 W23G30    30.10F
SARATOGA       FAIR      59  32  36 NW8G18    30.11F
LARAMIE        FAIR      66  28  24 W20G28    30.05F
CHEYENNE       TSTM      60  37  42 SW22G28   30.07R
TORRINGTON     FAIR      65  38  36 SE17      29.97S
PINE BLUFFS    FAIR      66  34  30 S15G23    30.01F

$$




USA.gov is the U.S. government's official web portal to all federal, state and local government web resources and services.